Location: Excel
(51.3833°N, 110.5667°W)
Time: 13:37:28
(UTC+00:00)

Envisat - Pass Details

Date: 10 December 2021
Orbit: 764 x 766 km, 98.2° (Epoch: 28 January)

Event Time Altitude Azimuth Distance (km) Brightness Sun altitude
Rises 13:26:54 0° 9° (N) 3,248 6.2 -16.0°
Reaches altitude 10° 13:29:20 10° 2° (N) 2,317 5.3 -15.6°
Maximum altitude 13:34:01 38° 295° (WNW) 1,163 3.4 -14.9°
Drops below altitude 10° 13:38:40 10° 229° (SW) 2,301 5.2 -14.2°
Sets 13:41:05 0° 221° (SW) 3,223 6.0 -13.9°
